{"data":{"norad_id":60443,"epoch":"2026-05-25T04:50:10.744800Z","epoch_age_seconds":50948,"freshness":"FRESH","line1":"1 60443U 24144U   26145.20151325  .00001375  00000+0  51832-4 0  9997","line2":"2 60443  53.1613 221.0194 0001161  87.1436 272.9699 15.34389338101031","mean_motion":15.34389338,"eccentricity":0.0001161,"inclination_deg":53.1613,"raan_deg":221.0194,"arg_perigee_deg":87.1436,"mean_anomaly_deg":272.9699,"bstar":5.1832e-5,"rev_number":10103,"period_min":93.848410200567,"perigee_km":461.94070487044,"apogee_km":463.52915533261,"semimajor_km":6840.8719301015,"source":"CELESTRAK","updated_at":"2026-05-25T13:38:19.276683Z"}}